CKS275 LOWW-VHHH

Flight info

Callsign CKS275
Flight time N/A
Altitude 29000
Route ARSIN DCT BUG DCT NERDI DCT ARGES DCT NEDSI T343 UDROS/N0490F310 UM859 KARDE UN644 ROLIN N644 LAGAS M747 LUSAL N199 RASAM L88 METKA B476 DARVA/K0915F310 DCT OGOLI/K0906F330 N193 SR L163 TISIB L141 KAMUD/K0898S1010 W186 SADAN Y1 OMBON/K0904S1070 DCT OVRAL B330 POU R473 SIERA
Aircraft B77L/H-SDE1E2E3FGHIJ2J3J4J5M1RWXY/LB1D1

Departure

Time 2026-05-06 19:13
Airport Vienna International Airport (LOWW)

Arrival

Time N/A
Airport Hong Kong International Airport (VHHH)
Time Latitude Longitude Altitude Speed Heading
2026-05-06 18:25 48.12124 16.55374 593 ft 0 kts 292°
2026-05-06 18:59 48.12126 16.55369 593 ft 2 kts 292°
2026-05-06 19:00 48.12133 16.55341 594 ft 4 kts 292°
2026-05-06 19:00 48.12142 16.55304 594 ft 4 kts 280°
2026-05-06 19:00 48.12124 16.55273 595 ft 4 kts 223°
2026-05-06 19:00 48.12102 16.55248 596 ft 4 kts 211°
2026-05-06 19:01 48.12076 16.55229 596 ft 4 kts 205°
2026-05-06 19:01 48.12051 16.55212 596 ft 4 kts 204°
2026-05-06 19:01 48.12025 16.55195 596 ft 4 kts 204°
2026-05-06 19:01 48.11997 16.55182 597 ft 4 kts 186°
2026-05-06 19:02 48.11945 16.55199 597 ft 9 kts 201°
2026-05-06 19:02 48.11930 16.55115 597 ft 9 kts 271°
2026-05-06 19:02 48.11943 16.55026 597 ft 9 kts 292°
2026-05-06 19:02 48.11969 16.54943 598 ft 9 kts 295°
2026-05-06 19:03 48.11999 16.54850 597 ft 13 kts 296°
2026-05-06 19:03 48.12050 16.54695 596 ft 20 kts 296°
2026-05-06 19:03 48.12111 16.54507 593 ft 20 kts 296°
2026-05-06 19:03 48.12171 16.54320 591 ft 20 kts 295°
2026-05-06 19:04 48.12232 16.54134 588 ft 20 kts 296°
2026-05-06 19:04 48.12292 16.53951 587 ft 19 kts 296°
2026-05-06 19:04 48.12348 16.53780 587 ft 15 kts 296°
2026-05-06 19:04 48.12387 16.53660 587 ft 11 kts 296°
2026-05-06 19:05 48.12416 16.53571 588 ft 8 kts 295°
2026-05-06 19:05 48.12434 16.53514 587 ft 6 kts 295°
2026-05-06 19:05 48.12429 16.53475 587 ft 3 kts 229°
2026-05-06 19:05 48.12416 16.53459 588 ft 2 kts 216°
2026-05-06 19:06 48.12407 16.53451 588 ft 0 kts 209°
2026-05-06 19:07 48.12385 16.53434 589 ft 7 kts 207°
2026-05-06 19:07 48.12341 16.53402 590 ft 7 kts 204°
2026-05-06 19:07 48.12295 16.53371 590 ft 7 kts 204°
2026-05-06 19:08 48.12258 16.53409 590 ft 7 kts 115°
2026-05-06 19:08 48.12256 16.53418 590 ft 0 kts 112°
2026-05-06 19:12 48.12221 16.53529 588 ft 35 kts 117°
2026-05-06 19:12 48.11993 16.54225 590 ft 112 kts 116°
2026-05-06 19:12 48.11549 16.55590 619 ft 179 kts 115°
2026-05-06 19:13 48.10934 16.57407 835 ft 200 kts 121°
2026-05-06 19:13 48.10315 16.59272 1636 ft 194 kts 122°
2026-05-06 19:13 48.09701 16.61132 2179 ft 210 kts 123°
2026-05-06 19:13 48.09002 16.63225 2443 ft 237 kts 123°
2026-05-06 19:14 48.08253 16.65493 2999 ft 249 kts 124°
2026-05-06 19:14 48.07439 16.67868 3319 ft 261 kts 130°
2026-05-06 19:14 48.06202 16.69764 3712 ft 257 kts 156°
2026-05-06 19:14 48.04558 16.70719 4244 ft 254 kts 175°
2026-05-06 19:15 48.02805 16.70842 4820 ft 252 kts 190°
2026-05-06 19:15 48.01080 16.70406 5004 ft 253 kts 193°
2026-05-06 19:15 47.99344 16.69969 5258 ft 251 kts 192°
2026-05-06 19:15 47.97592 16.69538 5804 ft 259 kts 192°
2026-05-06 19:16 47.95815 16.69102 6487 ft 259 kts 192°
2026-05-06 19:16 47.93973 16.68650 6718 ft 279 kts 192°
2026-05-06 19:16 47.92011 16.68169 7148 ft 291 kts 192°
2026-05-06 19:16 47.89988 16.67678 7686 ft 298 kts 192°
2026-05-06 19:17 47.87905 16.67362 8220 ft 307 kts 180°
2026-05-06 19:17 47.85789 16.67806 8795 ft 314 kts 173°
2026-05-06 19:17 47.83628 16.68402 9479 ft 317 kts 173°
2026-05-06 19:17 47.81444 16.68997 10173 ft 319 kts 173°
2026-05-06 19:18 47.79253 16.69582 10824 ft 322 kts 173°
2026-05-06 19:18 47.77004 16.70171 11088 ft 338 kts 173°
2026-05-06 19:18 47.74613 16.70790 11360 ft 353 kts 173°
2026-05-06 19:18 47.72164 16.71419 11851 ft 361 kts 173°
2026-05-06 19:19 47.69670 16.72057 12446 ft 366 kts 173°
2026-05-06 19:19 47.67147 16.72703 13108 ft 369 kts 173°
2026-05-06 19:19 47.64603 16.73355 13762 ft 372 kts 173°
2026-05-06 19:19 47.62065 16.74004 14357 ft 376 kts 173°
2026-05-06 19:20 47.59472 16.74663 14917 ft 380 kts 173°
2026-05-06 19:20 47.56850 16.75326 15481 ft 384 kts 173°
2026-05-06 19:20 47.54197 16.75995 16055 ft 387 kts 173°
2026-05-06 19:20 47.51525 16.76670 16619 ft 391 kts 173°
2026-05-06 19:21 47.48852 16.77464 17049 ft 395 kts 164°
2026-05-06 19:21 47.46410 16.79475 17327 ft 412 kts 140°
2026-05-06 19:21 47.44575 16.82749 17889 ft 420 kts 124°
2026-05-06 19:21 47.43191 16.86608 18443 ft 426 kts 117°
2026-05-06 19:22 47.42070 16.90693 18908 ft 430 kts 113°
2026-05-06 19:22 47.41061 16.94870 19392 ft 434 kts 112°
2026-05-06 19:22 47.40077 16.99101 19883 ft 437 kts 112°
2026-05-06 19:22 47.39078 17.03353 20354 ft 440 kts 112°
2026-05-06 19:23 47.38065 17.07564 20803 ft 442 kts 112°
2026-05-06 19:23 47.36998 17.11890 20846 ft 445 kts 113°
2026-05-06 19:23 47.35936 17.16118 20862 ft 443 kts 113°
2026-05-06 19:23 47.34856 17.20364 20851 ft 442 kts 114°
2026-05-06 19:24 47.33767 17.24606 20854 ft 442 kts 114°
2026-05-06 19:24 47.32675 17.28849 20862 ft 443 kts 114°
2026-05-06 19:24 47.31576 17.33103 21095 ft 445 kts 114°
2026-05-06 19:24 47.30472 17.37370 21615 ft 447 kts 114°
2026-05-06 19:25 47.29361 17.41658 22098 ft 449 kts 114°
2026-05-06 19:25 47.28620 17.44512 22388 ft 451 kts 114°
2026-05-06 19:25 47.27492 17.48859 22831 ft 454 kts 114°
2026-05-06 19:25 47.26357 17.53223 23267 ft 457 kts 114°
2026-05-06 19:26 47.25213 17.57612 23677 ft 460 kts 114°
2026-05-06 19:26 47.24064 17.62022 24040 ft 463 kts 114°
2026-05-06 19:26 47.22903 17.66462 24415 ft 466 kts 114°
2026-05-06 19:26 47.21747 17.70877 24763 ft 468 kts 114°
2026-05-06 19:27 47.20570 17.75364 25117 ft 471 kts 114°
2026-05-06 19:27 47.19387 17.79865 25444 ft 474 kts 114°
2026-05-06 19:27 47.18188 17.84415 25789 ft 477 kts 114°
2026-05-06 19:27 47.16985 17.88974 26131 ft 480 kts 114°
2026-05-06 19:28 47.15773 17.93555 26477 ft 483 kts 114°
2026-05-06 19:28 47.14551 17.98165 26813 ft 485 kts 114°
2026-05-06 19:28 47.13320 18.02803 27120 ft 488 kts 114°
2026-05-06 19:28 47.12080 18.07462 27437 ft 491 kts 114°
2026-05-06 19:29 47.10831 18.12148 27741 ft 493 kts 114°
2026-05-06 19:29 47.09592 18.16787 28049 ft 496 kts 114°
2026-05-06 19:29 47.08323 18.21529 28348 ft 499 kts 114°
2026-05-06 19:29 47.07047 18.26291 28634 ft 501 kts 114°
2026-05-06 19:30 47.05764 18.31064 28834 ft 505 kts 114°
2026-05-06 19:30 47.03181 18.40646 28903 ft 511 kts 114°
2026-05-06 19:31 47.00559 18.50338 28895 ft 511 kts 114°
2026-05-06 19:31 46.96614 18.64845 28904 ft 509 kts 114°
2026-05-06 19:32 46.93982 18.74471 28896 ft 509 kts 114°
2026-05-06 19:32 46.91344 18.84085 28906 ft 509 kts 114°
2026-05-06 19:33 46.88692 18.93706 28914 ft 509 kts 114°
2026-05-06 19:33 46.86053 19.03238 28899 ft 509 kts 114°
2026-05-06 19:34 46.83391 19.12821 28909 ft 509 kts 114°
2026-05-06 19:34 46.80719 19.22399 28910 ft 509 kts 114°
2026-05-06 19:35 46.78038 19.31972 28918 ft 509 kts 115°
2026-05-06 19:35 46.75350 19.41538 28919 ft 509 kts 115°
2026-05-06 19:36 46.72673 19.51022 28907 ft 509 kts 115°
2026-05-06 19:36 46.69968 19.60572 28917 ft 509 kts 115°
2026-05-06 19:37 46.67250 19.70102 28917 ft 509 kts 115°
2026-05-06 19:37 46.64339 19.79494 28913 ft 508 kts 117°
2026-05-06 19:38 46.61332 19.88822 28916 ft 508 kts 117°
2026-05-06 19:38 46.58372 19.98042 28904 ft 508 kts 117°
2026-05-06 19:39 46.55396 20.07369 28902 ft 508 kts 117°
2026-05-06 19:39 46.52426 20.16679 28895 ft 508 kts 117°
2026-05-06 19:40 46.49449 20.25973 28895 ft 507 kts 117°
2026-05-06 19:40 46.46464 20.35256 28899 ft 507 kts 117°
2026-05-06 19:41 46.43490 20.44471 28901 ft 507 kts 117°
2026-05-06 19:41 46.40484 20.53747 28907 ft 508 kts 117°
2026-05-06 19:42 46.37474 20.63001 28907 ft 508 kts 117°
2026-05-06 19:42 46.34453 20.72261 28927 ft 508 kts 117°
2026-05-06 19:43 46.31418 20.81527 28915 ft 509 kts 117°
2026-05-06 19:43 46.28397 20.90717 28934 ft 509 kts 117°
2026-05-06 19:44 46.25354 20.99945 28933 ft 509 kts 117°
2026-05-06 19:44 46.22297 21.09180 28932 ft 509 kts 117°
2026-05-06 19:45 46.19231 21.18411 28942 ft 509 kts 117°
2026-05-06 19:45 46.16159 21.27626 28932 ft 509 kts 117°
2026-05-06 19:46 46.13079 21.36832 28940 ft 509 kts 117°
2026-05-06 19:46 46.09990 21.46035 28937 ft 510 kts 117°
2026-05-06 19:47 46.06911 21.55174 28941 ft 510 kts 117°
2026-05-06 19:47 46.03798 21.64384 28938 ft 511 kts 117°
2026-05-06 19:48 46.00679 21.73578 28946 ft 511 kts 117°
2026-05-06 19:48 45.97546 21.82778 28944 ft 511 kts 117°
2026-05-06 19:49 45.94408 21.91963 28954 ft 512 kts 117°
2026-05-06 19:49 45.91283 22.01081 28953 ft 512 kts 117°
2026-05-06 19:50 45.88125 22.10260 28965 ft 512 kts 117°
2026-05-06 19:50 45.84963 22.19421 28966 ft 512 kts 117°
2026-05-06 19:51 45.81792 22.28575 28974 ft 512 kts 117°
2026-05-06 19:51 45.78613 22.37723 28976 ft 513 kts 117°
2026-05-06 19:52 45.75422 22.46869 28984 ft 513 kts 117°
2026-05-06 19:52 45.72251 22.55934 28986 ft 513 kts 117°
2026-05-06 19:53 45.69046 22.65060 28992 ft 513 kts 117°
2026-05-06 19:53 45.65827 22.74193 29004 ft 513 kts 117°
2026-05-06 19:54 45.62606 22.83308 28995 ft 513 kts 117°
2026-05-06 19:54 45.59394 22.92359 29010 ft 513 kts 117°
2026-05-06 19:55 45.56157 23.01455 29017 ft 513 kts 117°
2026-05-06 19:55 45.52922 23.10515 29019 ft 513 kts 117°
2026-05-06 19:56 45.49672 23.19584 29018 ft 513 kts 117°
2026-05-06 19:56 45.46432 23.28599 29037 ft 514 kts 117°
2026-05-06 19:57 45.43164 23.37656 29038 ft 513 kts 117°
2026-05-06 19:57 45.39885 23.46712 29051 ft 513 kts 117°
2026-05-06 19:58 45.36626 23.55687 29044 ft 514 kts 117°
2026-05-06 19:58 45.33342 23.64709 29033 ft 513 kts 117°
2026-05-06 19:59 45.30041 23.73720 29044 ft 513 kts 117°
2026-05-06 19:59 45.26689 23.82692 29038 ft 514 kts 118°
2026-05-06 20:00 45.23319 23.91652 29036 ft 514 kts 118°
2026-05-06 20:00 45.19943 24.00615 29029 ft 515 kts 118°
2026-05-06 20:01 45.16562 24.09581 29022 ft 515 kts 117°
2026-05-06 20:01 45.13202 24.18467 29023 ft 516 kts 117°
2026-05-06 20:02 45.09806 24.27416 29019 ft 516 kts 118°
2026-05-06 20:02 45.06397 24.36372 29028 ft 517 kts 117°
2026-05-06 20:03 45.02970 24.45345 29022 ft 518 kts 118°
2026-05-06 20:03 44.99535 24.54305 29026 ft 518 kts 118°
2026-05-06 20:04 44.96118 24.63196 29016 ft 518 kts 118°
2026-05-06 20:04 44.92671 24.72132 29028 ft 518 kts 118°
2026-05-06 20:05 44.89216 24.81061 29025 ft 518 kts 118°
2026-05-06 20:05 44.85747 24.89999 29017 ft 519 kts 118°
2026-05-06 20:06 44.82277 24.98909 29024 ft 519 kts 118°
2026-05-06 20:06 44.78794 25.07825 29017 ft 519 kts 118°
2026-05-06 20:07 44.75327 25.16670 29022 ft 519 kts 118°
2026-05-06 20:07 44.71821 25.25589 29024 ft 520 kts 118°
2026-05-06 20:08 44.68313 25.34483 29026 ft 520 kts 118°
2026-05-06 20:08 44.64799 25.43362 29027 ft 520 kts 118°
2026-05-06 20:09 44.61278 25.52235 29021 ft 520 kts 118°
2026-05-06 20:09 44.57748 25.61100 29020 ft 520 kts 118°
2026-05-06 20:10 44.54234 25.69897 29032 ft 520 kts 118°
2026-05-06 20:10 44.50693 25.78733 29039 ft 519 kts 117°
2026-05-06 20:11 44.47746 25.86069 29046 ft 519 kts 117°
2026-05-06 20:11 44.44196 25.94878 29049 ft 519 kts 117°
2026-05-06 20:12 44.40640 26.03674 29049 ft 518 kts 117°
2026-05-06 20:12 44.37087 26.12435 29046 ft 518 kts 117°
2026-05-06 20:13 44.33546 26.21142 29045 ft 518 kts 117°
2026-05-06 20:13 44.29975 26.29894 29027 ft 518 kts 117°
2026-05-06 20:14 44.26400 26.38630 29052 ft 518 kts 117°
2026-05-06 20:14 44.22822 26.47346 29053 ft 517 kts 117°
2026-05-06 20:15 44.19240 26.56045 29049 ft 517 kts 117°
2026-05-06 20:15 44.15677 26.64672 29049 ft 517 kts 117°
2026-05-06 20:16 44.12082 26.73352 29046 ft 517 kts 117°
2026-05-06 20:16 44.08478 26.82031 29049 ft 518 kts 117°
2026-05-06 20:17 44.04847 26.90694 29055 ft 518 kts 117°
2026-05-06 20:17 44.01212 26.99297 29059 ft 519 kts 117°
2026-05-06 20:18 43.97553 27.07938 29059 ft 519 kts 117°
2026-05-06 20:18 43.93889 27.16573 29074 ft 520 kts 117°
2026-05-06 20:19 43.90214 27.25213 29067 ft 520 kts 117°
2026-05-06 20:19 43.86531 27.33847 29078 ft 520 kts 118°
2026-05-06 20:20 43.82843 27.42463 29085 ft 519 kts 118°
2026-05-06 20:20 43.79582 27.50061 29080 ft 519 kts 118°
2026-05-06 20:21 43.75890 27.58639 29096 ft 518 kts 118°
2026-05-06 20:21 43.72201 27.67188 29093 ft 517 kts 118°
2026-05-06 20:22 43.68505 27.75724 29101 ft 516 kts 118°
2026-05-06 20:22 43.64833 27.84181 29104 ft 516 kts 118°
2026-05-06 20:23 43.61118 27.92712 29102 ft 515 kts 118°
2026-05-06 20:23 43.57450 28.01112 29107 ft 514 kts 118°
2026-05-06 20:24 43.53756 28.09546 29106 ft 513 kts 118°
2026-05-06 20:24 43.50063 28.17955 29113 ft 513 kts 118°
2026-05-06 20:25 43.46357 28.26367 29110 ft 512 kts 118°
2026-05-06 20:25 43.42681 28.34688 29114 ft 511 kts 118°
2026-05-06 20:26 43.38978 28.43049 29118 ft 511 kts 119°
2026-05-06 20:26 43.35278 28.51381 29125 ft 510 kts 119°
2026-05-06 20:27 43.32044 28.59997 29118 ft 505 kts 108°
2026-05-06 20:27 43.29563 28.69008 29126 ft 504 kts 108°
2026-05-06 20:28 43.27079 28.78002 29122 ft 504 kts 108°
2026-05-06 20:28 43.24555 28.86978 29120 ft 503 kts 109°
2026-05-06 20:29 43.22027 28.95879 29140 ft 505 kts 109°
2026-05-06 20:29 43.19455 29.04888 29112 ft 501 kts 109°
2026-05-06 20:30 43.15668 29.18102 29132 ft 499 kts 109°
2026-05-06 20:31 43.13125 29.26945 29126 ft 499 kts 109°
2026-05-06 20:31 43.10576 29.35780 29126 ft 499 kts 109°
2026-05-06 20:32 43.08020 29.44605 29129 ft 499 kts 109°
2026-05-06 20:32 43.05458 29.53421 29121 ft 499 kts 109°
2026-05-06 20:33 43.02904 29.62179 29128 ft 498 kts 109°
2026-05-06 20:33 43.00334 29.70960 29125 ft 498 kts 109°
2026-05-06 20:34 42.97755 29.79743 29122 ft 497 kts 109°
2026-05-06 20:34 42.95172 29.88509 29122 ft 496 kts 110°
2026-05-06 20:35 42.92589 29.97243 29128 ft 495 kts 110°
2026-05-06 20:35 42.90021 30.05899 29125 ft 494 kts 110°
2026-05-06 20:36 42.87437 30.14581 29124 ft 493 kts 110°
2026-05-06 20:36 42.84849 30.23248 29124 ft 493 kts 110°
2026-05-06 20:37 42.82253 30.31911 29128 ft 492 kts 110°
2026-05-06 20:37 42.79676 30.40484 29126 ft 492 kts 110°
2026-05-06 20:38 42.77068 30.49134 29129 ft 492 kts 110°
2026-05-06 20:38 42.74560 30.57798 29117 ft 491 kts 105°
2026-05-06 20:39 42.73071 30.66807 29125 ft 486 kts 95°
2026-05-06 20:39 42.72203 30.75945 29128 ft 487 kts 94°
2026-05-06 20:40 42.71321 30.85021 29130 ft 488 kts 95°
2026-05-06 20:40 42.70395 30.94161 29114 ft 488 kts 95°
2026-05-06 20:41 42.69448 31.03320 29112 ft 488 kts 95°
2026-05-06 20:41 42.68495 31.12461 29128 ft 488 kts 95°
2026-05-06 20:42 42.67542 31.21540 29128 ft 488 kts 95°
2026-05-06 20:42 42.66576 31.30676 29129 ft 488 kts 95°
2026-05-06 20:43 42.65604 31.39800 29118 ft 488 kts 95°
2026-05-06 20:43 42.64624 31.48926 29120 ft 488 kts 95°
2026-05-06 20:44 42.63635 31.58073 29294 ft 491 kts 95°
2026-05-06 20:44 42.63143 31.62597 29713 ft 490 kts 95°
2026-05-06 20:44 42.62643 31.67160 30208 ft 487 kts 95°
2026-05-06 20:44 42.62144 31.71703 30625 ft 484 kts 95°
2026-05-06 20:45 42.61647 31.76220 30959 ft 484 kts 95°
2026-05-06 20:45 42.60645 31.85288 31106 ft 486 kts 95°
2026-05-06 20:46 42.59635 31.94357 31115 ft 484 kts 95°
2026-05-06 20:46 42.59076 31.99345 31125 ft 483 kts 95°